Weather in Shrewsbury

United Kingdom     52°42′25″N   2°44′45″W
temp.,
°C
wind,
m/s
gust,
m/s
humid.,
%
clouds,
%
prec.,
mm/h
press.,
hPa
HPBL,
m
17 may, mon
mon1701:00+6wnw23946 0.4 100050
04:00+5w22936 0.0 100130
07:00+7wsw239057 0.0 100396
10:00+10nw578893 0.4 1005820
13:00+13nw566785 1.1 10061547
16:00+13nnw576965 1.1 10071460
19:00+11nnw477499 1.5 1008583
22:00+6w3489100 0.1 101065
18 may, tue
tue1801:00+5wsw3594100 0.1 101091
04:00+6sw399579 0.0 1010184
07:00+8wsw38915 0.1 1011285
10:00+12w45687 0.0 10121179
13:00+14wsw3459100 0.6 10121527
16:00+11ssw567336 1.1 1013521
19:00+11sw34805 1.4 1013517
22:00+7nw118819 0.4 101412
19 may, wed
wed1901:00+5nnw119189 0.4 101510
04:00+4wsw229210 0.0 101511
07:00+6wsw23906 0.0 1017103
10:00+12nw34755 0.1 1018693
13:00+13nnw576719 1.6 10181460
16:00+13nw467154 1.1 10191143
19:00+12wnw58705 1.2 1021637
22:00+7wsw48895 0.0 1023122
20 may, thu
thu2001:00+5sw37957 0.0 1023121
04:00+5sw3595100 0.0 102391
07:00+8sw3689100 0.0 1023183
10:00+12sw4671100 0.0 1022822
13:00+14ssw6862100 0.1 10201736
16:00+10s51187100 0.5 1019763
19:00+9s81594100 1.4 1015778
22:00+10s71493100 1.2 1012900
21 may, fri
fri2101:00+10s61392100 1.8 1009672
04:00+9ssw6128838 0.2 1006686
07:00+9ssw71281100 0.2 10041017
10:00+12ssw9157296 0.1 10021586
13:00+11ssw91681100 0.6 9991525
16:00+11ssw111778100 0.5 9961576
19:00+10ssw91679100 0.6 9931458
22:00+10ssw91689100 0.6 9901433